Location: ??????????
(54.4061°N, 22.6114°E)
Time: 05:39:21
(UTC+00:00)

Abrixas rocket - Pass Details

Date: 23 October 2019
Orbit: 359 x 368 km, 48.4° (Epoch: 18 November)

Event Time Altitude Azimuth Distance (km) Brightness Sun altitude
Rises 17:19:52 0° 253° (WSW) 2,222 7.1 -18.9°
Reaches altitude 10° 17:22:05 10° 241° (WSW) 1,372 5.6 -19.2°
Enters shadow 17:24:25 26° 193° (SSW) 779 3.6 -19.5°
